This is the latest recevied weather packets stored in our database for station/object N4PWG. If no packets are shown the sender has not sent any weather packets the latest 10 day(s).
| Time | Temp. | Humidity | Pressure | Rain* | Wind** | Luminosity | Snow |
|---|---|---|---|---|---|---|---|
| 1777577621 | 18.33° C | 44% | 1033.9 hPa | 0 mm | - | 606 W/m² | - |
| 1777577318 | 18.33° C | 45% | 1033.8 hPa | 0 mm | - | 645 W/m² | - |
| 1777577014 | 18.33° C | 45% | 1034.1 hPa | 0 mm | - | 636 W/m² | - |
| 1777576712 | 18.33° C | 43% | 1034 hPa | 0 mm | - | 594 W/m² | - |
| 1777576410 | 18.33° C | 45% | 1033.9 hPa | 0 mm | - | 539 W/m² | - |
| 1777576107 | 18.89° C | 43% | 1034.1 hPa | 0 mm | - | 671 W/m² | - |
| 1777575802 | 18.89° C | 46% | 1034.3 hPa | 0 mm | - | 553 W/m² | - |
| 1777575500 | 17.78° C | 42% | 1034.5 hPa | 0 mm | - | 547 W/m² | - |
| 1777575195 | 18.33° C | 44% | 1034.4 hPa | 0 mm | - | 544 W/m² | - |
| 1777574891 | 17.22° C | 44% | 1034.3 hPa | 0 mm | - | 406 W/m² | - |
| 1777574589 | 17.78° C | 44% | 1034.5 hPa | 0 mm | - | 469 W/m² | - |
| 1777574285 | 17.78° C | 45% | 1034.4 hPa | 0 mm | - | 489 W/m² | - |
| 1777573980 | 18.89° C | 43% | 1034.5 hPa | 0 mm | - | 546 W/m² | - |
| 1777573675 | 17.78° C | 44% | 1034.8 hPa | 0 mm | - | 632 W/m² | - |
| 1777573372 | 17.78° C | 45% | 1034.9 hPa | 0 mm | - | 533 W/m² | - |
| 1777573068 | 18.33° C | 46% | 1034.7 hPa | 0 mm | - | 546 W/m² | - |
| 1777572765 | 18.33° C | 47% | 1035 hPa | 0 mm | - | 644 W/m² | - |
| 1777572465 | 18.33° C | 43% | 1035.1 hPa | 0 mm | - | 489 W/m² | - |
| 1777572161 | 18.33° C | 46% | 1035.3 hPa | 0 mm | - | 522 W/m² | - |
| 1777571856 | 17.78° C | 46% | 1035 hPa | 0 mm | - | 538 W/m² | - |
| 1777571552 | 17.78° C | 43% | 1035 hPa | 0 mm | - | 497 W/m² | - |
| 1777571249 | 17.78° C | 42% | 1034.9 hPa | 0 mm | - | 482 W/m² | - |
| 1777570946 | 17.78° C | 44% | 1035 hPa | 0 mm | - | 511 W/m² | - |
| 1777570641 | 17.22° C | 42% | 1034.9 hPa | 0 mm | - | 449 W/m² | - |
| 1777570338 | 16.67° C | 43% | 1035.1 hPa | 0 mm | - | 462 W/m² | - |
* Rain latest hour (hover to see other rain measurements)
** Current wind speed in m/s (hover to see current wind gust speed)